| time (UTC) | temp F | wind direction | speed MPH | gust MPH | rain 1hr in | rain 24hr in | rain mn in | humidity % | barometer mb |
| 20260507052018 | 55 | 270 | 2.0 | 7.0 | 0.00 | 0.00 | 0.00 | 82 | 1020.6 |
| 20260507051539 | 54 | 257 | 2.0 | 7.0 | 0.00 | 0.00 | 0.00 | 81 | 1020.6 |
| 20260507051019 | 54 | 209 | 1.0 | 7.0 | 0.00 | 0.00 | 0.00 | 81 | 1020.7 |
| 20260507050519 | 54 | 274 | 2.0 | 7.0 | 0.00 | 0.00 | 0.00 | 81 | 1020.7 |
| 20260507050018 | 54 | 278 | 1.0 | 6.0 | 0.00 | 0.00 | 0.00 | 81 | 1020.7 |
| 20260507045541 | 55 | 260 | 4.0 | 6.0 | 0.00 | 0.00 | 0.00 | 81 | 1020.7 |
| 20260507045022 | 55 | 264 | 2.0 | 6.0 | 0.00 | 0.00 | 0.00 | 80 | 1020.7 |
| 20260507044541 | 55 | 286 | 3.0 | 6.0 | 0.00 | 0.00 | 0.00 | 80 | 1020.7 |
| 20260507044020 | 55 | 245 | 3.0 | 7.0 | 0.00 | 0.00 | 0.00 | 81 | 1020.7 |
| 20260507043520 | 55 | 292 | 4.0 | 7.0 | 0.00 | 0.00 | 0.00 | 80 | 1020.7 |
| 20260507043021 | 55 | 293 | 2.0 | 6.0 | 0.00 | 0.00 | 0.00 | 80 | 1020.7 |
| 20260507042520 | 55 | 290 | 1.0 | 8.0 | 0.00 | 0.00 | 0.00 | 80 | 1020.7 |
| 20260507042042 | 56 | 238 | 3.0 | 8.0 | 0.00 | 0.00 | 0.00 | 79 | 1020.7 |
| 20260507041528 | 56 | 192 | 4.0 | 8.0 | 0.00 | 0.00 | 0.00 | 79 | 1020.7 |
| 20260507041048 | 56 | 301 | 3.0 | 9.0 | 0.00 | 0.00 | 0.00 | 79 | 1020.6 |
| 20260507040529 | 56 | 309 | 4.0 | 9.0 | 0.00 | 0.00 | 0.00 | 79 | 1020.6 |
| 20260507040029 | 56 | 281 | 1.0 | 6.0 | 0.00 | 0.00 | 0.00 | 79 | 1020.6 |
| 20260507035528 | 56 | 260 | 3.0 | 10.0 | 0.00 | 0.00 | 0.00 | 79 | 1020.6 |
| 20260507035029 | 56 | 284 | 5.0 | 10.0 | 0.00 | 0.00 | 0.00 | 78 | 1020.5 |
| 20260507034548 | 56 | 227 | 4.0 | 9.0 | 0.00 | 0.00 | 0.00 | 78 | 1020.4 |
| 20260507034048 | 56 | 288 | 4.0 | 14.0 | 0.00 | 0.00 | 0.00 | 78 | 1020.3 |
| 20260507033526 | 56 | 294 | 5.0 | 14.0 | 0.00 | 0.00 | 0.00 | 78 | 1020.3 |
| 20260507033024 | 56 | 237 | 5.0 | 10.0 | 0.00 | 0.00 | 0.00 | 78 | 1020.2 |
| 20260507032524 | 57 | 260 | 3.0 | 9.0 | 0.00 | 0.00 | 0.00 | 78 | 1020.2 |
| 20260507032023 | 57 | 301 | 4.0 | 10.0 | 0.00 | 0.00 | 0.00 | 78 | 1020.1 |
| 20260507031523 | 57 | 296 | 4.0 | 10.0 | 0.00 | 0.00 | 0.00 | 77 | 1020.1 |
| 20260507031045 | 57 | 295 | 4.0 | 8.0 | 0.00 | 0.00 | 0.00 | 78 | 1020.0 |
| 20260507030522 | 57 | 301 | 5.0 | 9.0 | 0.00 | 0.00 | 0.00 | 78 | 1020.0 |
| 20260507030020 | 58 | 279 | 5.0 | 9.0 | 0.00 | 0.00 | 0.00 | 77 | 1019.8 |
| 20260507025538 | 58 | 277 | 3.0 | 9.0 | 0.00 | 0.00 | 0.00 | 77 | 1019.8 |
| 20260507025021 | 58 | 244 | 3.0 | 8.0 | 0.00 | 0.00 | 0.00 | 77 | 1019.8 |
| 20260507024528 | 58 | 269 | 3.0 | 8.0 | 0.00 | 0.00 | 0.00 | 78 | 1019.7 |
| 20260507024049 | 58 | 296 | 4.0 | 8.0 | 0.00 | 0.00 | 0.00 | 78 | 1019.7 |
| 20260507023526 | 58 | 247 | 3.0 | 9.0 | 0.00 | 0.00 | 0.00 | 78 | 1019.5 |
| 20260507023027 | 59 | 296 | 3.0 | 9.0 | 0.00 | 0.00 | 0.00 | 78 | 1019.6 |
| 20260507022527 | 59 | 232 | 4.0 | 9.0 | 0.00 | 0.00 | 0.00 | 77 | 1019.5 |
| 20260507022047 | 59 | 303 | 5.0 | 9.0 | 0.00 | 0.00 | 0.00 | 77 | 1019.5 |
| 20260507021526 | 59 | 292 | 5.0 | 9.0 | 0.00 | 0.00 | 0.00 | 76 | 1019.5 |
| 20260507021047 | 60 | 253 | 5.0 | 8.0 | 0.00 | 0.00 | 0.00 | 76 | 1019.6 |
| 20260507020528 | 60 | 313 | 4.0 | 7.0 | 0.00 | 0.00 | 0.00 | 75 | 1019.5 |
| 20260507020027 | 60 | 271 | 4.0 | 7.0 | 0.00 | 0.00 | 0.00 | 76 | 1019.5 |
| 20260507015526 | 60 | 298 | 3.0 | 8.0 | 0.00 | 0.00 | 0.00 | 76 | 1019.6 |
| 20260507015026 | 61 | 308 | 4.0 | 8.0 | 0.00 | 0.00 | 0.00 | 75 | 1019.5 |
| 20260507014526 | 61 | 270 | 4.0 | 10.0 | 0.00 | 0.00 | 0.00 | 75 | 1019.5 |
| 20260507014028 | 61 | 273 | 4.0 | 10.0 | 0.00 | 0.00 | 0.00 | 76 | 1019.5 |
| 20260507013530 | 61 | 225 | 4.0 | 11.0 | 0.00 | 0.00 | 0.00 | 75 | 1019.5 |
| 20260507013030 | 61 | 286 | 3.0 | 11.0 | 0.00 | 0.00 | 0.00 | 74 | 1019.6 |
| 20260507012549 | 62 | 275 | 5.0 | 8.0 | 0.00 | 0.00 | 0.00 | 74 | 1019.6 |
| 20260507012047 | 62 | 264 | 4.0 | 10.0 | 0.00 | 0.00 | 0.00 | 73 | 1019.6 |
| 20260507011525 | 63 | 293 | 3.0 | 8.0 | 0.00 | 0.00 | 0.00 | 74 | 1019.6 |
| 20260507011045 | 63 | 314 | 4.0 | 8.0 | 0.00 | 0.00 | 0.00 | 74 | 1019.6 |
| 20260507010530 | 62 | 312 | 3.0 | 9.0 | 0.00 | 0.00 | 0.00 | 74 | 1019.6 |
| 20260507010010 | 63 | 248 | 5.0 | 9.0 | 0.00 | 0.00 | 0.00 | 73 | 1019.7 |
| 20260507005512 | 63 | 331 | 4.0 | 8.0 | 0.00 | 0.00 | 0.00 | 73 | 1019.7 |
| 20260507005011 | 63 | 284 | 4.0 | 9.0 | 0.00 | 0.00 | 0.00 | 72 | 1019.6 |
| 20260507004511 | 64 | 209 | 4.0 | 9.0 | 0.00 | 0.00 | 0.00 | 72 | 1019.5 |
| 20260507004012 | 64 | 307 | 4.0 | 9.0 | 0.00 | 0.00 | 0.00 | 72 | 1019.5 |
| 20260507003514 | 64 | 250 | 4.0 | 9.0 | 0.00 | 0.00 | 0.00 | 73 | 1019.5 |
| 20260507003012 | 64 | 234 | 5.0 | 9.0 | 0.00 | 0.00 | 0.00 | 73 | 1019.4 |
| 20260507002514 | 64 | 265 | 5.0 | 10.0 | 0.00 | 0.00 | 0.00 | 73 | 1019.4 |
| 20260507002016 | 64 | 218 | 4.0 | 10.0 | 0.00 | 0.00 | 0.00 | 73 | 1019.4 |
| 20260507001519 | 64 | 188 | 5.0 | 9.0 | 0.00 | 0.00 | 0.00 | 73 | 1019.3 |
| 20260507001021 | 64 | 229 | 5.0 | 9.0 | 0.00 | 0.00 | 0.00 | 73 | 1019.3 |
| 20260507000523 | 64 | 228 | 5.0 | 10.0 | 0.00 | 0.00 | 0.00 | 72 | 1019.3 |
| 20260507000023 | 64 | 200 | 5.0 | 9.0 | 0.00 | 0.00 | 0.00 | 72 | 1019.4 |
| 20260506235543 | 65 | 229 | 5.0 | 9.0 | 0.00 | 0.00 | 0.00 | 72 | 1019.4 |
| 20260506235023 | 65 | 277 | 4.0 | 9.0 | 0.00 | 0.00 | 0.00 | 73 | 1019.3 |
| 20260506234524 | 65 | 233 | 5.0 | 9.0 | 0.00 | 0.00 | 0.00 | 71 | 1019.4 |
| 20260506234025 | 65 | 252 | 3.0 | 9.0 | 0.00 | 0.00 | 0.00 | 72 | 1019.3 |
| 20260506233015 | 65 | 240 | 4.0 | 8.0 | 0.00 | 0.00 | 0.00 | 71 | 1019.3 |
| 20260506232519 | 65 | 232 | 4.0 | 8.0 | 0.00 | 0.00 | 0.00 | 70 | 1019.3 |
| 20260506232018 | 66 | 278 | 4.0 | 8.0 | 0.00 | 0.00 | 0.00 | 70 | 1019.4 |
| 20260506231520 | 65 | 217 | 5.0 | 8.0 | 0.00 | 0.00 | 0.00 | 71 | 1019.3 |
| 20260506231020 | 66 | 258 | 3.0 | 9.0 | 0.00 | 0.00 | 0.00 | 71 | 1019.3 |
| 20260506230522 | 66 | 252 | 5.0 | 9.0 | 0.00 | 0.00 | 0.00 | 70 | 1019.3 |
| 20260506230023 | 67 | 200 | 4.0 | 6.0 | 0.00 | 0.00 | 0.00 | 71 | 1019.4 |
| 20260506225543 | 67 | 286 | 3.0 | 7.0 | 0.00 | 0.00 | 0.00 | 69 | 1019.4 |
| 20260506225023 | 67 | 169 | 3.0 | 7.0 | 0.00 | 0.00 | 0.00 | 71 | 1019.4 |
| 20260506224521 | 66 | 169 | 3.0 | 6.0 | 0.00 | 0.00 | 0.00 | 72 | 1019.5 |
| 20260506224041 | 66 | 269 | 3.0 | 8.0 | 0.00 | 0.00 | 0.00 | 71 | 1019.5 |
| 20260506223520 | 66 | 175 | 4.0 | 8.0 | 0.00 | 0.00 | 0.00 | 71 | 1019.5 |
| 20260506223018 | 65 | 173 | 2.0 | 5.0 | 0.00 | 0.00 | 0.00 | 71 | 1019.6 |
| 20260506222520 | 65 | 181 | 1.0 | 3.0 | 0.00 | 0.00 | 0.00 | 72 | 1019.7 |
| 20260506222022 | 65 | 256 | 2.0 | 4.0 | 0.00 | 0.00 | 0.00 | 72 | 1019.7 |
| 20260506221524 | 64 | 229 | 2.0 | 4.0 | 0.00 | 0.00 | 0.00 | 76 | 1019.8 |
| 20260506221026 | 64 | 317 | 2.0 | 4.0 | 0.00 | 0.00 | 0.00 | 74 | 1019.9 |
| 20260506220530 | 64 | 184 | 0.0 | 4.0 | 0.00 | 0.00 | 0.00 | 74 | 1019.9 |
| 20260506220050 | 64 | 292 | 1.0 | 4.0 | 0.00 | 0.00 | 0.00 | 77 | 1019.8 |
| 20260506215531 | 64 | 323 | 3.0 | 6.0 | 0.00 | 0.00 | 0.00 | 76 | 1019.9 |
| 20260506215030 | 64 | 312 | 2.0 | 5.0 | 0.00 | 0.00 | 0.00 | 76 | 1019.9 |
| 20260506214512 | 64 | 249 | 2.0 | 5.0 | 0.00 | 0.00 | 0.00 | 76 | 1019.9 |
| 20260506214014 | 63 | 312 | 2.0 | 4.0 | 0.00 | 0.00 | 0.00 | 77 | 1019.9 |
| 20260506213516 | 63 | 311 | 2.0 | 5.0 | 0.00 | 0.00 | 0.00 | 76 | 1020.0 |
| 20260506213017 | 64 | 306 | 3.0 | 5.0 | 0.00 | 0.00 | 0.00 | 76 | 1020.0 |
| 20260506212538 | 64 | 247 | 1.0 | 4.0 | 0.00 | 0.00 | 0.00 | 77 | 1020.0 |
| 20260506212039 | 63 | 227 | 1.0 | 4.0 | 0.00 | 0.00 | 0.00 | 78 | 1019.9 |
| 20260506211520 | 62 | 130 | 1.0 | 2.0 | 0.00 | 0.00 | 0.00 | 80 | 1020.0 |
| 20260506211020 | 62 | 336 | 0.0 | 4.0 | 0.00 | 0.00 | 0.00 | 77 | 1020.1 |
| 20260506210519 | 63 | 216 | 2.0 | 4.0 | 0.00 | 0.00 | 0.00 | 79 | 1020.1 |
| 20260506210041 | 63 | 311 | 2.0 | 4.0 | 0.00 | 0.00 | 0.00 | 79 | 1020.2 |
| 20260506205520 | 63 | 166 | 2.0 | 4.0 | 0.00 | 0.00 | 0.00 | 80 | 1020.2 |
| 20260506205020 | 63 | 313 | 2.0 | 6.0 | 0.00 | 0.00 | 0.00 | 78 | 1020.2 |
| 20260506204525 | 63 | 200 | 3.0 | 6.0 | 0.00 | 0.00 | 0.00 | 80 | 1020.2 |
| 20260506204028 | 63 | 297 | 2.0 | 4.0 | 0.00 | 0.00 | 0.00 | 80 | 1020.3 |
| 20260506203529 | 62 | 269 | 1.0 | 4.0 | 0.00 | 0.00 | 0.00 | 80 | 1020.4 |
| 20260506203050 | 62 | 278 | 2.0 | 4.0 | 0.00 | 0.00 | 0.00 | 80 | 1020.3 |
| 20260506202528 | 62 | 85 | 2.0 | 4.0 | 0.00 | 0.00 | 0.00 | 79 | 1020.3 |
| 20260506202047 | 62 | 140 | 1.0 | 3.0 | 0.00 | 0.00 | 0.00 | 81 | 1020.3 |
| 20260506201526 | 62 | 282 | 2.0 | 3.0 | 0.00 | 0.00 | 0.00 | 80 | 1020.3 |
| 20260506201026 | 61 | 202 | 2.0 | 5.0 | 0.00 | 0.00 | 0.00 | 81 | 1020.2 |
| 20260506200529 | 61 | 87 | 1.0 | 5.0 | 0.00 | 0.00 | 0.00 | 81 | 1020.2 |
| 20260506200025 | 61 | 94 | 2.0 | 3.0 | 0.00 | 0.00 | 0.00 | 83 | 1020.2 |
| 20260506195545 | 61 | 30 | 2.0 | 4.0 | 0.00 | 0.00 | 0.00 | 82 | 1020.2 |
| 20260506195026 | 61 | 82 | 2.0 | 5.0 | 0.00 | 0.00 | 0.00 | 82 | 1020.2 |
| 20260506194529 | 61 | 145 | 2.0 | 3.0 | 0.00 | 0.00 | 0.00 | 83 | 1020.3 |
| 20260506194012 | 60 | 219 | 1.0 | 3.0 | 0.00 | 0.00 | 0.00 | 84 | 1020.4 |
| 20260506193512 | 60 | 180 | 0.0 | 5.0 | 0.00 | 0.00 | 0.00 | 83 | 1020.5 |
| 20260506193013 | 60 | 220 | 3.0 | 5.0 | 0.00 | 0.00 | 0.00 | 84 | 1020.5 |
| 20260506192518 | 60 | 174 | 1.0 | 3.0 | 0.00 | 0.00 | 0.00 | 84 | 1020.5 |
| 20260506192038 | 60 | 196 | 1.0 | 5.0 | 0.00 | 0.00 | 0.00 | 84 | 1020.5 |
| 20260506191518 | 60 | 232 | 3.0 | 5.0 | 0.00 | 0.00 | 0.00 | 85 | 1020.5 |
| 20260506191017 | 60 | 251 | 3.0 | 5.0 | 0.00 | 0.00 | 0.00 | 84 | 1020.5 |
| 20260506190518 | 60 | 211 | 2.0 | 4.0 | 0.00 | 0.00 | 0.00 | 84 | 1020.5 |
| 20260506190020 | 60 | 259 | 2.0 | 4.0 | 0.00 | 0.00 | 0.00 | 84 | 1020.5 |
| 20260506185522 | 60 | 237 | 1.0 | 3.0 | 0.00 | 0.00 | 0.00 | 83 | 1020.3 |
| 20260506185020 | 60 | 210 | 1.0 | 4.0 | 0.00 | 0.00 | 0.00 | 83 | 1020.3 |
| 20260506184539 | 60 | 190 | 2.0 | 4.0 | 0.00 | 0.00 | 0.00 | 83 | 1020.2 |
| 20260506184020 | 60 | 192 | 2.0 | 4.0 | 0.00 | 0.00 | 0.00 | 84 | 1020.3 |
| 20260506183542 | 60 | 202 | 2.0 | 4.0 | 0.00 | 0.00 | 0.00 | 84 | 1020.3 |
| 20260506183022 | 59 | 189 | 1.0 | 3.0 | 0.00 | 0.00 | 0.00 | 83 | 1020.3 |
| 20260506182031 | 60 | 311 | 1.0 | 4.0 | 0.00 | 0.00 | 0.00 | 83 | 1020.2 |
| 20260506181513 | 60 | 248 | 3.0 | 4.0 | 0.00 | 0.00 | 0.00 | 84 | 1020.2 |
| 20260506181014 | 59 | 298 | 1.0 | 4.0 | 0.00 | 0.00 | 0.00 | 83 | 1020.2 |
| 20260506180516 | 60 | 244 | 2.0 | 4.0 | 0.00 | 0.00 | 0.00 | 84 | 1020.2 |
| 20260506180018 | 59 | 235 | 1.0 | 2.0 | 0.00 | 0.00 | 0.00 | 84 | 1020.1 |
| 20260506175522 | 59 | 152 | 1.0 | 4.0 | 0.00 | 0.00 | 0.00 | 85 | 1020.1 |
| 20260506175021 | 59 | 213 | 2.0 | 4.0 | 0.00 | 0.00 | 0.00 | 85 | 1020.2 |
| 20260506174522 | 58 | 355 | 1.0 | 4.0 | 0.00 | 0.00 | 0.00 | 84 | 1020.2 |
| 20260506174021 | 58 | 226 | 3.0 | 4.0 | 0.00 | 0.00 | 0.00 | 86 | 1020.1 |
| 20260506173520 | 58 | 300 | 1.0 | 3.0 | 0.00 | 0.00 | 0.00 | 85 | 1020.0 |
| 20260506173021 | 58 | 231 | 0.0 | 5.0 | 0.00 | 0.00 | 0.00 | 85 | 1020.1 |
| 20260506172523 | 57 | 226 | 2.0 | 4.0 | 0.00 | 0.00 | 0.00 | 85 | 1020.0 |
| 20260506172025 | 58 | 305 | 3.0 | 4.0 | 0.00 | 0.00 | 0.00 | 85 | 1019.9 |
| 20260506171547 | 58 | 271 | 3.0 | 4.0 | 0.00 | 0.00 | 0.00 | 85 | 1019.9 |
| 20260506171028 | 58 | 225 | 1.0 | 4.0 | 0.00 | 0.00 | 0.00 | 85 | 1019.9 |
| 20260506170527 | 58 | 187 | 2.0 | 3.0 | 0.00 | 0.00 | 0.00 | 87 | 1019.9 |
| 20260506170028 | 57 | 168 | 2.0 | 3.0 | 0.00 | 0.00 | 0.00 | 86 | 1019.9 |
| 20260506165547 | 57 | 314 | 2.0 | 3.0 | 0.00 | 0.00 | 0.00 | 86 | 1019.9 |
| 20260506165025 | 57 | 248 | 1.0 | 4.0 | 0.00 | 0.00 | 0.00 | 86 | 1019.8 |
| 20260506164526 | 57 | 267 | 2.0 | 4.0 | 0.00 | 0.00 | 0.00 | 86 | 1019.8 |
| 20260506164012 | 56 | 169 | 2.0 | 4.0 | 0.00 | 0.00 | 0.00 | 87 | 1019.9 |
| 20260506163511 | 56 | 254 | 2.0 | 5.0 | 0.00 | 0.00 | 0.00 | 87 | 1019.8 |
| 20260506163014 | 56 | 254 | 3.0 | 6.0 | 0.00 | 0.00 | 0.00 | 87 | 1019.9 |
| 20260506162515 | 56 | 267 | 2.0 | 5.0 | 0.00 | 0.00 | 0.00 | 87 | 1019.9 |
| 20260506162014 | 56 | 250 | 2.0 | 4.0 | 0.00 | 0.00 | 0.00 | 87 | 1019.9 |
| 20260506161533 | 56 | 242 | 1.0 | 6.0 | 0.00 | 0.00 | 0.00 | 87 | 1019.9 |
| 20260506161014 | 56 | 223 | 2.0 | 6.0 | 0.00 | 0.00 | 0.00 | 86 | 1019.9 |
| 20260506160515 | 56 | 215 | 2.0 | 4.0 | 0.00 | 0.00 | 0.00 | 87 | 1019.8 |
| 20260506160016 | 56 | 209 | 1.0 | 4.0 | 0.00 | 0.00 | 0.00 | 86 | 1019.7 |
| 20260506155517 | 56 | 204 | 1.0 | 3.0 | 0.00 | 0.00 | 0.00 | 86 | 1019.5 |
| 20260506155015 | 56 | 175 | 0.0 | 2.0 | 0.00 | 0.00 | 0.00 | 87 | 1019.5 |
| 20260506154517 | 56 | 106 | 1.0 | 3.0 | 0.00 | 0.00 | 0.00 | 87 | 1019.3 |
| 20260506154018 | 56 | 126 | 1.0 | 4.0 | 0.00 | 0.00 | 0.00 | 87 | 1019.1 |
| 20260506153520 | 56 | 71 | 1.0 | 4.0 | 0.00 | 0.00 | 0.00 | 87 | 1019.1 |
| 20260506153026 | 55 | 113 | 1.0 | 2.0 | 0.00 | 0.00 | 0.00 | 87 | 1019.2 |
| 20260506152529 | 55 | 88 | 1.0 | 2.0 | 0.00 | 0.00 | 0.00 | 88 | 1019.3 |
| 20260506152051 | 55 | 262 | 1.0 | 3.0 | 0.00 | 0.00 | 0.00 | 88 | 1019.6 |
| 20260506151524 | 55 | 122 | 1.0 | 3.0 | 0.00 | 0.00 | 0.00 | 89 | 1019.4 |
| 20260506151024 | 55 | 238 | 1.0 | 4.0 | 0.00 | 0.00 | 0.00 | 89 | 1019.7 |
| 20260506150524 | 54 | 277 | 2.0 | 6.0 | 0.00 | 0.00 | 0.00 | 89 | 1019.8 |
| 20260506150022 | 54 | 221 | 2.0 | 6.0 | 0.00 | 0.00 | 0.00 | 89 | 1019.8 |
| 20260506145524 | 54 | 241 | 2.0 | 6.0 | 0.00 | 0.01 | 0.00 | 89 | 1019.9 |
| 20260506145026 | 54 | 263 | 2.0 | 6.0 | 0.00 | 0.01 | 0.00 | 89 | 1019.9 |
| 20260506144526 | 54 | 294 | 3.0 | 6.0 | 0.00 | 0.01 | 0.00 | 89 | 1019.8 |
| 20260506144025 | 54 | 272 | 3.0 | 6.0 | 0.00 | 0.01 | 0.00 | 90 | 1019.8 |
| 20260506143524 | 54 | 254 | 2.0 | 4.0 | 0.00 | 0.01 | 0.00 | 90 | 1019.7 |
| 20260506143022 | 54 | 215 | 0.0 | 4.0 | 0.00 | 0.01 | 0.00 | 90 | 1019.6 |
| 20260506142521 | 54 | 268 | 2.0 | 5.0 | 0.00 | 0.01 | 0.00 | 90 | 1019.5 |
| 20260506142042 | 54 | 311 | 1.0 | 5.0 | 0.00 | 0.01 | 0.00 | 90 | 1019.6 |
| 20260506141522 | 54 | 265 | 3.0 | 5.0 | 0.00 | 0.01 | 0.00 | 90 | 1019.5 |
| 20260506141029 | 54 | 240 | 2.0 | 4.0 | 0.00 | 0.01 | 0.00 | 91 | 1019.3 |
| 20260506140531 | 54 | 267 | 1.0 | 3.0 | 0.00 | 0.01 | 0.00 | 91 | 1019.2 |
| 20260506140013 | 54 | 297 | 1.0 | 3.0 | 0.00 | 0.01 | 0.00 | 91 | 1019.1 |
| 20260506135534 | 54 | 274 | 0.0 | 4.0 | 0.00 | 0.01 | 0.00 | 91 | 1019.0 |
| 20260506135014 | 54 | 254 | 2.0 | 4.0 | 0.00 | 0.01 | 0.00 | 91 | 1019.1 |
| 20260506134515 | 54 | 242 | 2.0 | 4.0 | 0.00 | 0.01 | 0.00 | 92 | 1019.0 |
| 20260506134015 | 53 | 239 | 2.0 | 5.0 | 0.00 | 0.01 | 0.00 | 92 | 1018.9 |
| 20260506133516 | 53 | 213 | 2.0 | 5.0 | 0.00 | 0.01 | 0.00 | 92 | 1018.9 |
| 20260506133018 | 53 | 220 | 3.0 | 5.0 | 0.00 | 0.01 | 0.00 | 92 | 1018.9 |
| 20260506132518 | 53 | 240 | 2.0 | 4.0 | 0.00 | 0.01 | 0.00 | 92 | 1018.9 |
| 20260506132020 | 53 | 244 | 3.0 | 5.0 | 0.00 | 0.01 | 0.00 | 92 | 1018.9 |
| 20260506131522 | 53 | 221 | 3.0 | 5.0 | 0.00 | 0.01 | 0.00 | 92 | 1018.8 |
| 20260506131018 | 53 | 222 | 1.0 | 5.0 | 0.00 | 0.01 | 0.00 | 92 | 1018.8 |
| 20260506130520 | 53 | 257 | 3.0 | 5.0 | 0.00 | 0.01 | 0.00 | 92 | 1018.7 |
| 20260506130021 | 53 | 257 | 2.0 | 4.0 | 0.00 | 0.01 | 0.00 | 91 | 1018.6 |
| 20260506125521 | 53 | 232 | 1.0 | 4.0 | 0.00 | 0.01 | 0.00 | 91 | 1018.5 |
| 20260506125022 | 54 | 211 | 2.0 | 4.0 | 0.00 | 0.01 | 0.00 | 91 | 1018.5 |
| 20260506124519 | 54 | 234 | 0.0 | 3.0 | 0.00 | 0.01 | 0.00 | 91 | 1018.4 |
| 20260506124018 | 54 | 291 | 2.0 | 4.0 | 0.00 | 0.01 | 0.00 | 91 | 1018.4 |
| 20260506123520 | 54 | 267 | 2.0 | 4.0 | 0.00 | 0.01 | 0.00 | 91 | 1018.3 |
| 20260506123019 | 54 | 236 | 2.0 | 4.0 | 0.00 | 0.01 | 0.00 | 91 | 1018.3 |
| 20260506122520 | 54 | 271 | 1.0 | 3.0 | 0.00 | 0.01 | 0.00 | 91 | 1018.4 |
| 20260506122019 | 54 | 246 | 1.0 | 3.0 | 0.00 | 0.01 | 0.00 | 91 | 1018.4 |
| 20260506121518 | 54 | 248 | 2.0 | 3.0 | 0.00 | 0.01 | 0.00 | 90 | 1018.4 |
| 20260506121020 | 54 | 273 | 1.0 | 3.0 | 0.00 | 0.01 | 0.00 | 90 | 1018.4 |
| 20260506120521 | 54 | 263 | 0.0 | 3.0 | 0.00 | 0.01 | 0.00 | 90 | 1018.5 |
| 20260506120037 | 55 | 286 | 1.0 | 4.0 | 0.00 | 0.01 | 0.00 | 90 | 1018.5 |
| 20260506115515 | 55 | 240 | 1.0 | 4.0 | 0.00 | 0.01 | 0.00 | 90 | 1018.4 |
| 20260506115019 | 55 | 242 | 1.0 | 5.0 | 0.00 | 0.01 | 0.00 | 90 | 1018.4 |
| 20260506114518 | 55 | 259 | 2.0 | 4.0 | 0.00 | 0.01 | 0.00 | 90 | 1018.3 |
| 20260506114020 | 55 | 173 | 2.0 | 4.0 | 0.00 | 0.01 | 0.00 | 90 | 1018.3 |
| 20260506113522 | 55 | 270 | 1.0 | 3.0 | 0.00 | 0.01 | 0.00 | 90 | 1018.2 |
| 20260506113024 | 55 | 257 | 0.0 | 2.0 | 0.00 | 0.01 | 0.00 | 90 | 1018.2 |
| 20260506112526 | 55 | 252 | 1.0 | 2.0 | 0.00 | 0.01 | 0.00 | 90 | 1018.1 |
| 20260506112027 | 55 | 275 | 1.0 | 4.0 | 0.00 | 0.01 | 0.00 | 90 | 1018.1 |
| 20260506111550 | 55 | 271 | 2.0 | 4.0 | 0.00 | 0.01 | 0.00 | 90 | 1018.2 |
| 20260506111051 | 55 | 255 | 1.0 | 4.0 | 0.00 | 0.01 | 0.00 | 90 | 1018.1 |
| 20260506110530 | 55 | 242 | 2.0 | 3.0 | 0.00 | 0.01 | 0.00 | 91 | 1018.0 |
| 20260506110051 | 55 | 260 | 1.0 | 3.0 | 0.00 | 0.01 | 0.00 | 91 | 1018.0 |
| 20260506105550 | 55 | 268 | 1.0 | 4.0 | 0.00 | 0.01 | 0.00 | 91 | 1017.9 |
| 20260506105027 | 55 | 242 | 2.0 | 4.0 | 0.00 | 0.01 | 0.00 | 91 | 1017.9 |
| 20260506104528 | 55 | 269 | 1.0 | 3.0 | 0.00 | 0.01 | 0.00 | 91 | 1017.8 |
| 20260506104030 | 55 | 277 | 2.0 | 3.0 | 0.00 | 0.01 | 0.00 | 91 | 1017.7 |
| 20260506103550 | 55 | 251 | 1.0 | 3.0 | 0.00 | 0.01 | 0.00 | 91 | 1017.7 |
| 20260506103050 | 55 | 269 | 1.0 | 3.0 | 0.00 | 0.01 | 0.00 | 91 | 1017.7 |
| 20260506102527 | 55 | 269 | 1.0 | 3.0 | 0.00 | 0.01 | 0.00 | 91 | 1017.6 |
| 20260506102026 | 55 | 249 | 1.0 | 2.0 | 0.00 | 0.01 | 0.00 | 91 | 1017.5 |
| 20260506101526 | 55 | 246 | 1.0 | 3.0 | 0.00 | 0.01 | 0.00 | 90 | 1017.4 |
| 20260506101012 | 55 | 286 | 0.0 | 3.0 | 0.00 | 0.01 | 0.00 | 90 | 1017.4 |
| 20260506100514 | 55 | 302 | 1.0 | 3.0 | 0.00 | 0.01 | 0.00 | 90 | 1017.3 |
| 20260506100036 | 55 | 295 | 1.0 | 3.0 | 0.00 | 0.01 | 0.00 | 90 | 1017.3 |
| 20260506095517 | 55 | 294 | 1.0 | 2.0 | 0.00 | 0.01 | 0.00 | 90 | 1017.3 |
| 20260506095018 | 55 | 314 | 1.0 | 2.0 | 0.00 | 0.01 | 0.00 | 90 | 1017.3 |
| 20260506094541 | 55 | 275 | 0.0 | 3.0 | 0.00 | 0.01 | 0.00 | 90 | 1017.3 |
| 20260506094022 | 55 | 294 | 1.0 | 3.0 | 0.00 | 0.01 | 0.00 | 90 | 1017.2 |
| 20260506093522 | 55 | 272 | 1.0 | 4.0 | 0.00 | 0.01 | 0.00 | 90 | 1017.2 |
| 20260506093020 | 55 | 248 | 1.0 | 4.0 | 0.00 | 0.01 | 0.00 | 90 | 1017.2 |
| 20260506092522 | 55 | 260 | 1.0 | 4.0 | 0.00 | 0.01 | 0.00 | 90 | 1017.2 |
| 20260506092022 | 55 | 257 | 1.0 | 3.0 | 0.00 | 0.01 | 0.00 | 90 | 1017.1 |
| 20260506091525 | 55 | 250 | 1.0 | 4.0 | 0.00 | 0.01 | 0.00 | 90 | 1017.1 |
| 20260506091025 | 55 | 258 | 2.0 | 4.0 | 0.00 | 0.01 | 0.00 | 90 | 1017.0 |
| 20260506090527 | 55 | 240 | 2.0 | 3.0 | 0.00 | 0.01 | 0.00 | 90 | 1017.1 |
| 20260506090012 | 55 | 267 | 1.0 | 3.0 | 0.00 | 0.01 | 0.00 | 90 | 1017.1 |
| 20260506085511 | 55 | 203 | 1.0 | 5.0 | 0.00 | 0.01 | 0.00 | 90 | 1017.1 |
| 20260506085012 | 55 | 248 | 3.0 | 5.0 | 0.00 | 0.01 | 0.00 | 90 | 1017.2 |
| 20260506084551 | 55 | 269 | 2.0 | 4.0 | 0.00 | 0.01 | 0.00 | 90 | 1017.1 |
| 20260506084030 | 55 | 216 | 2.0 | 4.0 | 0.00 | 0.01 | 0.00 | 90 | 1017.1 |
| 20260506083549 | 55 | 252 | 1.0 | 3.0 | 0.00 | 0.01 | 0.00 | 90 | 1017.1 |
| 20260506083029 | 55 | 204 | 2.0 | 3.0 | 0.00 | 0.01 | 0.00 | 90 | 1017.1 |
| 20260506082529 | 55 | 216 | 1.0 | 3.0 | 0.00 | 0.01 | 0.00 | 90 | 1017.1 |
| 20260506082030 | 55 | 265 | 1.0 | 2.0 | 0.00 | 0.01 | 0.00 | 90 | 1017.1 |
| 20260506081530 | 55 | 233 | 1.0 | 2.0 | 0.00 | 0.01 | 0.00 | 90 | 1017.0 |
| 20260506081011 | 55 | 229 | 2.0 | 2.0 | 0.00 | 0.01 | 0.00 | 90 | 1017.0 |
| 20260506080512 | 55 | 248 | 0.0 | 2.0 | 0.00 | 0.01 | 0.00 | 90 | 1017.0 |
| 20260506073511 | 55 | 286 | 0.0 | 2.0 | 0.00 | 0.01 | 0.00 | 90 | 1016.8 |
| 20260506073014 | 55 | 286 | 0.0 | 2.0 | 0.00 | 0.01 | 0.00 | 90 | 1016.7 |
| 20260506072518 | 55 | 282 | 0.0 | 1.0 | 0.00 | 0.01 | 0.00 | 90 | 1016.7 |
| 20260506072019 | 55 | 282 | 0.0 | 1.0 | 0.00 | 0.01 | 0.00 | 90 | 1016.7 |
| 20260506071521 | 55 | 277 | 0.0 | 1.0 | 0.00 | 0.01 | 0.00 | 90 | 1016.7 |
| 20260506071024 | 55 | 277 | 0.0 | 1.0 | 0.00 | 0.01 | 0.00 | 90 | 1016.6 |
| 20260506070526 | 55 | 277 | 0.0 | 1.0 | 0.00 | 0.01 | 0.00 | 90 | 1016.6 |
| 20260506062019 | 55 | 258 | 2.0 | 4.0 | 0.00 | 0.01 | 0.01 | 88 | 1016.4 |
| 20260506061524 | 56 | 263 | 2.0 | 5.0 | 0.00 | 0.01 | 0.01 | 88 | 1016.4 |
| 20260506061026 | 56 | 274 | 2.0 | 5.0 | 0.00 | 0.01 | 0.01 | 88 | 1016.3 |
| 20260506060526 | 56 | 292 | 1.0 | 5.0 | 0.00 | 0.01 | 0.01 | 87 | 1016.3 |